This demonstration page uses our WeatherBlox Daily Observations layout. Learn more.

Left ArrowRight Arrow

Hourly Observations for June 22, 2022

Temp ( °F °C ) Dew Point ( °F °C ) Humidity (%) Winds ( mph kmh ) Pressure ( in mb ) Visibility ( mi km ) Precip ( " mm )
12:15 am 00:15 Clear 73 23 64 18 74 74 SSE 3 6 30.05 1018 10 16 0.00 0.00
12:35 am 00:35 Clear 72 22 64 18 78 78 Calm 30.04 1017 10 16 0.00 0.00
12:55 am 00:55 Clear 70 21 63 17 78 78 S 3 6 30.04 1017 10 16 0.00 0.00
1:15 am 01:15 Clear 68 20 64 18 88 88 Calm 30.04 1017 10 16 0.00 0.00
1:35 am 01:35 Clear 68 20 64 18 88 88 Calm 30.03 1017 10 16 0.00 0.00
1:55 am 01:55 Clear 68 20 64 18 88 88 Calm 30.02 1017 10 16 0.00 0.00
2:15 am 02:15 Clear 66 19 64 18 94 94 Calm 30.02 1017 10 16 0.00 0.00
2:35 am 02:35 Clear 66 19 63 17 88 88 Calm 30.02 1017 10 16 0.00 0.00
2:55 am 02:55 Clear 66 19 63 17 88 88 Calm 30.01 1016 10 16 0.00 0.00
3:15 am 03:15 Clear 64 18 63 17 94 94 Calm 30.01 1016 10 16 0.00 0.00
3:35 am 03:35 Clear 66 19 64 18 94 94 Calm 30.00 1016 10 16 0.00 0.00
3:55 am 03:55 Partly Cloudy 64 18 63 17 94 94 Calm 29.99 1016 10 16 0.00 0.00
4:15 am 04:15 Mostly Cloudy 64 18 64 18 100 100 Calm 29.99 1016 10 16 0.00 0.00
4:35 am 04:35 Cloudy 68 20 64 18 88 88 Calm 29.99 1016 10 16 0.00 0.00
4:55 am 04:55 Cloudy 68 20 64 18 88 88 Calm 29.97 1015 10 16 0.00 0.00
5:15 am 05:15 Cloudy 68 20 64 18 88 88 Calm 29.97 1015 10 16 0.00 0.00
5:35 am 05:35 Cloudy 66 19 64 18 94 94 Calm 29.97 1015 10 16 0.00 0.00
5:55 am 05:55 Partly Cloudy 66 19 64 18 94 94 Calm 29.96 1015 10 16 0.00 0.00
6:15 am 06:15 Sunny 64 18 64 18 100 100 Calm 29.96 1015 10 16 0.00 0.00
6:35 am 06:35 Sunny 68 20 64 18 88 88 Calm 29.96 1015 10 16 0.00 0.00
6:55 am 06:55 Partly Cloudy 68 20 64 18 88 88 W 3 6 29.96 1015 10 16 0.00 0.00
7:15 am 07:15 Mostly Cloudy 70 21 64 18 83 83 W 5 7 29.96 1015 10 16 0.00 0.00
7:35 am 07:35 Cloudy 70 21 66 19 88 88 W 3 6 29.96 1015 10 16 0.00 0.00
7:55 am 07:55 Cloudy 72 22 64 18 78 78 SW 3 6 29.96 1015 10 16 0.00 0.00
8:15 am 08:15 Cloudy 73 23 66 19 78 78 Calm 29.95 1014 10 16 0.00 0.00
8:35 am 08:35 Mostly Cloudy 73 23 66 19 78 78 WSW 3 6 29.94 1014 10 16 0.00 0.00
8:55 am 08:55 Sunny 75 24 68 20 78 78 Calm 29.94 1014 10 16 0.00 0.00
9:15 am 09:15 Sunny 77 25 68 20 74 74 Calm 29.93 1014 10 16 0.00 0.00
9:35 am 09:35 Sunny 79 26 68 20 70 70 Calm 29.92 1013 10 16 0.00 0.00
9:55 am 09:55 Sunny 82 28 70 21 66 66 Calm 29.92 1013 10 16 0.00 0.00
10:15 am 10:15 Sunny 86 30 70 21 59 59 NW 8 13 29.91 1013 10 16 0.00 0.00
10:35 am 10:35 Sunny 88 31 68 20 52 52 NW 10 17 29.91 1013 N/A 0.00 0.00
10:55 am 10:55 Sunny 88 31 68 20 52 52 NNW 9 15 29.91 1013 N/A 0.00 0.00
11:15 am 11:15 Sunny 86 30 68 20 55 55 NNW 10 17 29.91 1013 N/A 0.00 0.00
11:35 am 11:35 Sunny 88 31 68 20 52 52 N 8 13 29.91 1013 N/A 0.00 0.00
11:55 am 11:55 Partly Cloudy 88 31 70 21 55 55 N 6 9 29.91 1013 N/A 0.00 0.00
12:15 pm 12:15 Mostly Cloudy 88 31 70 21 55 55 NW 9 15 29.91 1013 10 16 0.00 0.00
12:35 pm 12:35 Mostly Cloudy 88 31 70 21 55 55 NW 8 13 29.90 1012 10 16 0.00 0.00
12:55 pm 12:55 Mostly Cloudy 88 31 68 20 52 52 NNE 7 11 29.90 1012 10 16 0.00 0.00
1:15 pm 13:15 Cloudy with Heavy Rain 86 30 70 21 59 59 N 9 15 29.91 1013 7 11 0.01 0.25
1:35 pm 13:35 Cloudy with Thunderstorms 79 26 73 23 84 84 Calm 29.91 1013 10 16 0.09 2.29
1:55 pm 13:55 Mostly Cloudy with Nearby Thunderstorms 81 27 75 24 84 84 ENE 6 9 29.90 1013 10 16 0.10 2.54
2:15 pm 14:15 Mostly Cloudy 81 27 73 23 79 79 SSE 5 7 29.88 1012 10 16 0.00 0.00
2:35 pm 14:35 Partly Cloudy 82 28 73 23 74 74 SSE 3 6 29.87 1012 10 16 0.00 0.00
2:55 pm 14:55 Partly Cloudy with Nearby Thunderstorms 82 28 73 23 74 74 SE 5 7 29.86 1011 10 16 0.00 0.00
3:15 pm 15:15 Partly Cloudy 82 28 72 22 70 70 E 3 6 29.87 1012 10 16 0.00 0.00
3:35 pm 15:35 Mostly Cloudy with Nearby Thunderstorms 82 28 75 24 79 79 WSW 3 6 29.86 1011 10 16 0.00 0.00
3:55 pm 15:55 Cloudy with Strong Thunderstorms 81 27 75 24 84 84 ENE 8 13 29.87 1012 2 2 0.10 2.54
4:15 pm 16:15 Cloudy with Strong Thunderstorms 77 25 75 24 94 94 N 9 15 29.89 1012 2 3 0.19 4.83
4:35 pm 16:35 Partly Cloudy with Thunderstorms 73 23 73 23 100 100 WNW 14 22 29.92 1013 N/A 0.24 6.10
4:55 pm 16:55 Partly Cloudy with Thunderstorms 73 23 73 23 100 100 Calm 29.86 1011 N/A 0.28 7.11
5:15 pm 17:15 Partly Cloudy with Thunderstorms 73 23 73 23 100 100 Calm 29.86 1011 5 8 0.00 0.00
5:35 pm 17:35 Mostly Cloudy with Nearby Thunderstorms 73 23 73 23 100 100 W 6 9 29.85 1011 N/A 0.00 0.00
5:55 pm 17:55 Partly Cloudy with Thunderstorms 72 22 72 22 100 100 Calm 29.85 1011 N/A 0.00 0.00
6:15 pm 18:15 undefined 72 22 72 22 100 100 WSW 6 9 29.86 1011 N/A 0.00 0.00
6:35 pm 18:35 Partly Cloudy 72 22 72 22 100 100 Calm 29.86 1011 10 16 0.00 0.00
6:55 pm 18:55 Mostly Cloudy 72 22 70 21 94 94 Calm 29.87 1011 10 16 0.00 0.00
7:15 pm 19:15 Cloudy 72 22 70 21 94 94 ESE 3 6 29.85 1011 10 16 0.00 0.00
7:35 pm 19:35 Cloudy 72 22 70 21 94 94 Calm 29.86 1011 10 16 0.00 0.00
7:55 pm 19:55 Cloudy 72 22 72 22 100 100 ENE 5 7 29.88 1012 N/A 0.00 0.00
8:15 pm 20:15 Cloudy 72 22 72 22 100 100 E 3 6 29.90 1012 10 16 0.00 0.00
8:35 pm 20:35 Partly Cloudy with Nearby Thunderstorms 72 22 72 22 100 100 ENE 6 9 29.90 1012 N/A 0.00 0.00
8:55 pm 20:55 undefined 72 22 72 22 100 100 NE 5 7 29.90 1012 N/A 0.02 0.51
9:15 pm 21:15 Cloudy 72 22 72 22 100 100 NNE 7 11 29.92 1013 N/A 0.00 0.00
9:35 pm 21:35 Cloudy with Nearby Thunderstorms 70 21 70 21 100 100 NNE 6 9 29.92 1013 N/A 0.01 0.25
9:55 pm 21:55 Cloudy with Nearby Thunderstorms 70 21 70 21 100 100 NE 3 6 29.91 1013 N/A 0.06 1.52
10:15 pm 22:15 Cloudy 70 21 70 21 100 100 Calm 29.91 1013 N/A 0.01 0.25
10:35 pm 22:35 Mostly Clear with Nearby Thunderstorms 70 21 70 21 100 100 NE 3 6 29.91 1013 N/A 0.04 1.02
10:55 pm 22:55 undefined 70 21 70 21 100 100 NE 6 9 29.92 1013 N/A 0.08 2.03
11:15 pm 23:15 Cloudy 70 21 70 21 100 100 NE 5 7 29.92 1013 N/A 0.02 0.51
11:35 pm 23:35 Cloudy 70 21 70 21 100 100 NNE 3 6 29.92 1013 N/A 0.02 0.51
11:55 pm 23:55 Cloudy 70 21 70 21 100 100 NNE 6 9 29.92 1013 N/A 0.03 0.76

Powered by AerisWeather